NOAA 16 DEB, 41422

Orbit data source: Space-Track

NOAA 16 DEB, 41422 is space debris in SSO originally from a launch on Thu, 21 Sep 2000 UTC launched from the Air Force Western Test Range (AFWTR). Debris objects in space refer to the collection of defunct objects orbiting the Earth. Examples of debris include non-operational satellites, rocket bodies, and fragments generated from explosions, collisions, or faulty payload assembly.

Loading next visibility...
Identifier
41422, 2000-055LB
Orbit
SSO
Country
Flag of USUS
Related business
Manufacturer
Unknown
Mission
Spacecraft
Bus & Motor
Unknown
Mass
Unknown
Launch date (UTC)
2000-09-21 (25 years ago)
Launch vehicle
Unknown
Launch site
Air Force Western Test Range (AFWTR)
Object type
Payload
Rocket body
Debris
Shape & HBR
Unknown shape, 0.1 m
Radar Cross Section
Small (<0.1 m²)

Expand to show TLE details & history
Last TLE update: 2 days ago

TLE from 2 days ago
0 NOAA 16 DEB
1 41422U 00055LB  25305.67484479  .00004304  00000-0  18300-2 0  9992
2 41422  98.7218  19.4241 0016177 127.8785 232.3860 14.25687602501776
Epoch: 2025-11-01T16:11Z
TLE epoch observation values (Epoch: 2025-11-01T16:11:46.589Z)
Latitude
-0.0001°
Longitude
95.27847°
Altitude
816.21 km
Speed
7.441 km/s
True Right ascension
01h 17m 41s
True Declination
0° 00' 00"
Sunlit
Object was in full shadow at epoch
Visualization orbit readout
Latitude
Unknown
Longitude
Unknown
Altitude
Unknown
Speed
Unknown
Apparent Right ascension
Unknown
Apparent Declination
Unknown
Sunlit
N/A
Visualization observer readout
Local Sidereal Time
02:46:53
Azimuth
Unknown
Elevation
Unknown
Doppler factor
Unknown
Orbital elements
Apogee altitude
814.951 km
Perigee altitude
791.716 km
Semi-major axis
7,181.47 km
Eccentricity
0.00162
Inclination
98.7218°
RAAN
19.4241°
Arg. of periapsis
127.8785°
True anomaly
232.23934°
Mean anomaly
232.386°
Eccentric anomaly
232.31265°
Mean motion
3.56634 °/min
Orbital period
100.94 mins
BSTAR
0.00183
Loading maneuver chart data...
Computing Atmospheric mass density...
Loading historical data...
Loading historical data...
Loading historical data...
Loading historical data...
Loading historical data...
Loading historical data...
Loading historical data...

Documentation

Showing up to 5 results
|